ROMMA est une association bénévole à but non lucratif. Votre soutien est indispensable : ADHERER à ROMMA ou FAIRE un DON

Challes-les-Eaux - (73, Savoie)

Trouée des Marches (325 m)   Longitude: 05° 58' E   Latitude: 45° 32' N Station romma n°148
 

Détail journalier du     <<     >>

Température Precipitation Humidité Pression Vent Dir Rafale Dir. rafale
Heure (°C) (mm) (%) (hPa) (km/h) (km/h)
01:00 13.709010172N6N
02:00 13.708910173N11NO
03:00 13.409010163NNE13N
04:00 13.408910164N15NE
05:00 13.209010152N11NO
06:00 13.108910144N15NE
07:00 12.709010145NNO15NE
08:00 12.609110144N15NO
09:00 12.908910144N16NNE
10:00 13.408810145N18NNO
11:00 14.208610147N18NNO
12:00 15.408310137N19NNO
13:00 16.708010128N23N
14:00 17.807710109NNO27N
15:00 17.807510108NNO24ONO
16:00 17.607510105NNE15NNO
17:00 17.807510104NNO16O
18:00 17.107910116N23NO
19:00 16.2078101110N26NNO
20:00 16.207910157N26N
21:00 14.02.29010124N19NNO
22:00 13.509210113NNE11NNE
23:00 13.709210133N13N
minuit 13.50.29310132SO15NNE

Graphique du 23-10-2019

 

Serveur OMMA